[[{"header":{"parameterUnit":"m.s-1","parameterCategory":2,"la1":30.2991,"la2":30.254,"lo1":-89.0895,"lo2":-89.0444,"dy":0.0017,"dx":0.0017,"nx":28,"ny":28,"refTime":"2024-06-17T03:00:00:Z","depth":"0","parameterNumber":2,"parameterNumberName":"U-component_of_CURRENTS"},"data":[0,0,0,0,0,0,0,0,0,0,0,0,0,0,0,0,0,0,0,0,0,0,0,0,0,0,0,0,0,0,0,0,0,0,0,0,0,0,0,0,0,0,0,0,0,0,0,0,0,0,0,0,0,0,0,0,0,0,0.2435,0.2435,0,0.2425,0.2425,0.2425,0.2409,0.2409,0.2409,0.2409,0.2359,0.2358,0.2356,0,0,0,0,0,0,0,0,0,0,0,0,0,0.2401,0.2402,0.2435,0.2435,0.2435,0.2426,0.2425,0.2425,0.2409,0.2409,0.2409,0.2409,0.2359,0.2358,0.2356,0,0,0,0,0,0,0,0,0,0,0,0,0,0.2404,0.2402,0.2435,0.2427,0.2427,0.2426,0.2425,0.2425,0.2409,0.2409,0.2409,0.2409,0.236,0.2358,0.2356,0.2348,0,0,0.235,0.235,0,0,0,0,0,0,0,0,0.2404,0.2405,0.2428,0.2428,0.2427,0.242,0.2395,0.2398,0.2409,0.2413,0.2409,0.2408,0.2377,0.2374,0.237,0.2345,0.2343,0.235,0.2349,0.2348,0.2348,0,0,0,0,0,0,0,0.2404,0.2405,0.2429,0.2429,0.2428,0.2412,0.2412,0.2395,0.2394,0.2413,0.2412,0.2415,0.2376,0.2372,0.2368,0.2342,0.235,0.2349,0.2347,0.2347,0.2338,0.2339,0,0,0,0,0,0,0.2412,0.2406,0.2429,0.2429,0.2418,0.2413,0.2413,0.2421,0.2395,0.2392,0.2415,0.2414,0.2375,0.2371,0.2367,0.238,0.2348,0.2347,0.2345,0.2337,0.2338,0.2339,0,0,0,0,0,0,0.2411,0.2414,0.243,0.2418,0.2419,0.2414,0.2422,0.2421,0.2419,0.2397,0.2393,0.2416,0.2375,0.2369,0.2357,0.2377,0.2346,0.2344,0.2336,0.2337,0.2338,0.2391,0,0,0,0,0,0,0.241,0.2414,0.242,0.2419,0.242,0.2426,0.2423,0.2421,0.2422,0.2421,0.2397,0.2392,0.2374,0.236,0.2355,0.2374,0.2343,0.2335,0.2336,0.2338,0.2388,0.2394,0.2399,0,0,0,0,0,0.2409,0.2413,0.2421,0.2424,0.243,0.2426,0.2425,0.2419,0.2422,0.2418,0.2409,0.2393,0.2367,0.2359,0.2353,0.2372,0.2334,0.2336,0.2338,0.2386,0.2393,0.2399,0,0,0,0,0,0,0.24,0.2412,0.242,0.2428,0.2429,0.2424,0.242,0.2423,0.2413,0.2414,0.2395,0.2389,0.239,0.2372,0.2363,0.2375,0.2351,0.2352,0.239,0.2396,0.2401,0.2433,0.2341,0,0,0,0,0,0.2404,0.2409,0.2419,0.2424,0.2427,0.2427,0.2426,0.2426,0.2419,0.2415,0.2399,0.239,0.2394,0.2387,0.2376,0.2375,0.242,0.2387,0.2392,0.2397,0.242,0.2515,0.2532,0.2345,0.2345,0.2345,0,0,0.2402,0.2409,0.2413,0.2422,0.2423,0.243,0.2425,0.2425,0.2435,0.2411,0.2408,0.2403,0.2398,0.2402,0.2402,0.2389,0.2473,0.2399,0.2404,0.2424,0.2519,0.2538,0.2554,0.2347,0.2346,0.2346,0,0,0.2396,0.2409,0.2412,0.2417,0.2423,0.2427,0.2431,0.2429,0.2432,0.2433,0.243,0.2445,0.2422,0.2438,0.2443,0.2473,0.2499,0.246,0.2512,0.2603,0.2621,0.2636,0.272,0.2742,0.2462,0.2463,0.2463,0,0.2395,0.2404,0.241,0.2416,0.2423,0.2431,0.2438,0.2446,0.244,0.2455,0.2436,0.2468,0.2451,0.2503,0.251,0.2489,0.2543,0.2486,0.2614,0.263,0.2645,0.2727,0.2752,0.2465,0.2465,0.2465,0.2464,0,0.2393,0.2404,0.2404,0.2422,0.2429,0.2433,0.2452,0.2461,0.2469,0.2486,0.2528,0.2526,0.2557,0.255,0.2535,0.263,0.2635,0.2613,0.2604,0.2668,0.2749,0.2774,0.2469,0.2468,0.2467,0.2467,0,0,0.2375,0.24,0.2399,0.2413,0.2433,0.244,0.2468,0.2501,0.2544,0.2551,0.2619,0.2627,0.265,0.266,0.2658,0.2725,0.2866,0.2715,0.2719,0.2809,0.3081,0.3042,0.3065,0.2872,0.2876,0.288,0.3096,0,0.237,0.2386,0.24,0.2419,0.2432,0.2458,0.2489,0.2526,0.2563,0.2628,0.2672,0.2726,0.2688,0.2721,0.2787,0.2846,0.2932,0.281,0.2995,0.3001,0.2969,0.3093,0.2886,0.3058,0.312,0.3124,0.3127,0,0.2356,0.2374,0.2394,0.2434,0.2443,0.2461,0.253,0.2561,0.2659,0.2697,0.2779,0.282,0.2926,0.2885,0.3059,0.2986,0.3049,0.3091,0.31,0.3067,0.3009,0.3002,0.31,0.2992,0.3165,0.3162,0.3159,0,0.2337,0.2364,0.2383,0.2395,0.2447,0.2469,0.2501,0.2582,0.2639,0.2764,0.284,0.2952,0.3034,0.3137,0.3219,0.316,0.342,0.3347,0.3381,0.3378,0.3241,0.3219,0.3265,0.3503,0.3502,0.3502,0.3501,0,0.2324,0.2338,0.2377,0.2392,0.2432,0.2466,0.2536,0.2587,0.2702,0.2802,0.2885,0.3002,0.3106,0.3249,0.3303,0.3438,0.3501,0.3438,0.3451,0.3251,0.3228,0.3155,0.3104,0.351,0.3508,0.3507,0.3505,0,0.2305,0.2327,0.2357,0.2409,0.2425,0.2458,0.255,0.2622,0.2718,0.2864,0.2919,0.3085,0.3269,0.3379,0.356,0.3549,0.3561,0.37,0.3456,0.3436,0.3311,0.3269,0.3254,0.3166,0.377,0.3771,0.3771,0,0.2302,0.2315,0.2365,0.2402,0.2427,0.2483,0.254,0.2624,0.2709,0.2917,0.3001,0.3212,0.3346,0.3596,0.3629,0.3752,0.3629,0.3624,0.3464,0.3325,0.3289,0.3138,0.3052,0.3308,0.3305,0.3302,0.33,0,0.2316,0.233,0.237,0.242,0.2473,0.2519,0.2598,0.2651,0.278,0.2895,0.3062,0.3181,0.3413,0.3435,0.3585,0.362,0.3399,0.3572,0.3493,0.3007,0.2783,0.2693,0.3148,0.3276,0.3278,0.328,0.3281,0.3282,0.2343,0.2363,0.2408,0.2456,0.2502,0.2521,0.2531,0.2625,0.2708,0.2837,0.3018,0.3139,0.3221,0.3383,0.3403,0.3268,0.3285,0.3127,0.3118,0.3003,0.2815,0.3226,0.3319,0.3321,0.3323,0.3325,0.3327,0,0.2369,0.2392,0.2445,0.2465,0.2481,0.2505,0.2553,0.2542,0.2583,0.275,0.2867,0.2938,0.2942,0.2993,0.2912,0.2801,0.2642,0.273,0.2445,0.2409,0.2835,0.2708,0.259,0.259,0.259,0.259,0.2591,0.2591,0.2398,0.2432,0.2442,0.2439,0.2442,0.2383,0.2378,0.2366,0.2429,0.2471,0.252,0.2615,0.2682,0.2624,0.2476,0.2422,0.2233,0.2112,0.2181,0.2437,0.2471,0.2503,0.237,0.2184,0.2183,0.1579,0.1574,0.1571]},{"header":{"parameterUnit":"m.s-1","parameterCategory":2,"la1":30.2991,"la2":30.254,"lo1":-89.0895,"lo2":-89.0444,"dy":0.0017,"dx":0.0017,"nx":28,"ny":28,"refTime":"2024-06-17T03:00:00:Z","depth":"0","parameterNumber":3,"parameterNumberName":"V-component_of_CURRENTS"},"data":[0,0,0,0,0,0,0,0,0,0,0,0,0,0,0,0,0,0,0,0,0,0,0,0,0,0,0,0,0,0,0,0,0,0,0,0,0,0,0,0,0,0,0,0,0,0,0,0,0,0,0,0,0,0,0,0,0,0,0.0026,0.0025,0,-0.003,-0.0031,-0.0032,-0.0062,-0.0062,-0.0062,-0.0062,-0.0131,-0.0133,-0.0135,0,0,0,0,0,0,0,0,0,0,0,0,0,0.0082,0.0081,0.0026,0.0025,0.0025,-0.003,-0.0031,-0.0032,-0.0062,-0.0062,-0.0062,-0.0062,-0.0131,-0.0133,-0.0135,0,0,0,0,0,0,0,0,0,0,0,0,0,0.0045,0.0081,0.0026,0.0003,0.0001,-0.003,-0.0031,-0.0032,-0.0062,-0.0062,-0.0062,-0.0062,-0.013,-0.0133,-0.0136,-0.0152,0,0,-0.0144,-0.0145,0,0,0,0,0,0,0,0,0.0047,0.0043,0.0007,0.0005,0.0002,-0.0039,-0.0037,-0.0073,-0.0062,-0.0038,-0.0062,-0.0062,-0.0101,-0.0106,-0.0117,-0.0155,-0.0158,-0.0144,-0.0146,-0.0147,-0.0148,0,0,0,0,0,0,0,0.005,0.0045,0.0003,0.0007,0.0003,-0.0013,-0.0018,-0.0044,-0.007,-0.004,-0.0043,-0.0048,-0.0103,-0.0115,-0.0119,-0.0159,-0.0144,-0.0147,-0.0148,-0.0149,-0.0176,-0.0175,0,0,0,0,0,0,0.0059,0.0047,0.0005,0.0002,0.0025,-0.0014,-0.0019,-0.0026,-0.0069,-0.0076,-0.0048,-0.005,-0.011,-0.0116,-0.0122,-0.0101,-0.0147,-0.015,-0.0151,-0.0177,-0.0176,-0.0175,0,0,0,0,0,0,0.006,0.0055,0.0007,0.0024,0.0016,-0.0014,-0.0022,-0.0027,-0.0034,-0.0075,-0.0082,-0.0048,-0.011,-0.0118,-0.0135,-0.0105,-0.0151,-0.0153,-0.0178,-0.0176,-0.0175,-0.0086,0,0,0,0,0,0,0.0062,0.0056,0.0056,0.0024,0.0016,0.0002,-0.0022,-0.0028,-0.0037,-0.0039,-0.0077,-0.0084,-0.0111,-0.0131,-0.0138,-0.011,-0.0155,-0.0179,-0.0177,-0.0176,-0.009,-0.0082,-0.0075,0,0,0,0,0,0.0064,0.0068,0.0056,0.0051,0.0016,0.0003,-0.0002,-0.0025,-0.0037,-0.0032,-0.006,-0.0083,-0.0124,-0.0133,-0.0141,-0.0113,-0.018,-0.0178,-0.0176,-0.0094,-0.0083,-0.0075,0,0,0,0,0,0,0.0096,0.0064,0.0051,0.0046,0.0031,-0.0001,-0.0002,-0.0019,-0.0038,-0.0043,-0.008,-0.0088,-0.0088,-0.0117,-0.0126,-0.0115,-0.0152,-0.0152,-0.0087,-0.0078,-0.007,-0.0032,-0.0158,0,0,0,0,0,0.0101,0.0095,0.0066,0.0065,0.0058,0.0029,0.002,0.0004,-0.0019,-0.0027,-0.0052,-0.0076,-0.0087,-0.0096,-0.0116,-0.0118,-0.0126,-0.0103,-0.0095,-0.0088,-0.0063,-0.0053,-0.0042,-0.0168,-0.0168,-0.0168,0,0,0.0113,0.0096,0.0092,0.0071,0.0055,0.0058,0.0024,0.0015,0.0026,-0.0032,-0.0026,-0.0053,-0.0082,-0.0078,-0.008,-0.0098,-0.0059,-0.0086,-0.0079,-0.0057,-0.005,-0.0037,-0.0026,-0.0166,-0.0167,-0.0167,0,0,0.0138,0.0119,0.0123,0.0115,0.0095,0.008,0.0083,0.0055,0.0052,0.0048,0.0018,0.0015,-0.0017,-0.0019,-0.0027,0.0011,-0.0018,-0.0001,0.007,0.0079,0.009,0.01,0.0101,0.011,0.0004,0.0004,0.0004,0,0.0155,0.0156,0.0125,0.0131,0.0137,0.0097,0.0116,0.0106,0.0079,0.0094,0.0063,0.006,0.0021,0.0057,0.0064,0.0033,0.0027,0.0037,0.0092,0.0101,0.0109,0.0108,0.0116,0.0008,0.0008,0.0007,0.0007,0,0.0183,0.0188,0.0194,0.0191,0.0194,0.0202,0.0188,0.0194,0.0183,0.0178,0.0207,0.0165,0.0175,0.0155,0.0116,0.0164,0.0136,0.0101,0.0073,0.0128,0.0122,0.0129,0.0015,0.0013,0.0012,0.0011,0,0,0.022,0.0214,0.0219,0.0243,0.0229,0.0244,0.0265,0.0289,0.0334,0.0305,0.0376,0.0336,0.0325,0.0317,0.0277,0.0274,0.0306,0.0214,0.0212,0.0225,0.0324,0.0301,0.0306,0.0278,0.028,0.0281,0.0295,0,0.0259,0.0294,0.0277,0.0331,0.0357,0.0342,0.038,0.0396,0.0406,0.0461,0.044,0.0479,0.0385,0.0405,0.0388,0.0335,0.0331,0.0306,0.0261,0.0261,0.0241,0.0316,0.0308,0.032,0.0302,0.0303,0.0304,0,0.0301,0.0323,0.0378,0.043,0.0442,0.0472,0.0549,0.0573,0.0622,0.0637,0.0665,0.0649,0.066,0.0572,0.0522,0.0508,0.043,0.0374,0.0373,0.0332,0.0253,0.0262,0.0334,0.0202,0.0316,0.0315,0.0314,0,0.037,0.0404,0.046,0.0473,0.0515,0.0559,0.059,0.0638,0.0698,0.0765,0.0829,0.0817,0.0839,0.0755,0.0625,0.058,0.0567,0.049,0.04,0.0396,0.0374,0.0365,0.0326,0.0466,0.0466,0.0466,0.0466,0,0.0434,0.0484,0.0504,0.0541,0.0637,0.0641,0.0757,0.0782,0.0867,0.0973,0.0936,0.1024,0.0883,0.0851,0.0709,0.0595,0.0633,0.0444,0.0413,0.0402,0.0396,0.0266,0.0182,0.0467,0.0467,0.0466,0.0466,0,0.052,0.052,0.0598,0.0651,0.0674,0.0754,0.0857,0.0948,0.1002,0.1149,0.1186,0.1193,0.1148,0.1002,0.087,0.0714,0.0527,0.0543,0.0536,0.0504,0.0277,0.0199,0.0159,0.0098,0.0454,0.0454,0.0454,0,0.057,0.0615,0.0684,0.0739,0.0772,0.0876,0.0956,0.1019,0.1121,0.1262,0.1352,0.1354,0.1385,0.1188,0.0927,0.0712,0.055,0.0529,0.0438,0.0298,0.0188,0.0144,0.0093,0.0437,0.0437,0.0437,0.0436,0,0.0681,0.0702,0.0767,0.085,0.0938,0.1046,0.1161,0.1261,0.1362,0.148,0.1616,0.1656,0.1487,0.1265,0.0953,0.0786,0.0442,0.0515,0.0382,0.0199,0.0141,0.0056,0.0382,0.0434,0.0434,0.0434,0.0434,0.0435,0.0771,0.0828,0.0884,0.0971,0.1072,0.1193,0.1297,0.1428,0.1587,0.1762,0.1794,0.1878,0.155,0.1136,0.0893,0.0429,0.0433,0.0256,0.0182,0.0158,0.0081,0.0403,0.0407,0.0407,0.0407,0.0407,0.0408,0,0.0841,0.0888,0.0988,0.1083,0.1197,0.1227,0.1415,0.1522,0.1701,0.1876,0.1986,0.189,0.1486,0.1065,0.0435,0.0134,0.0036,-0.0027,-0.0099,-0.0133,0.0167,0.0145,0.008,0.008,0.008,0.008,0.008,0.008,0.0882,0.0956,0.0985,0.1148,0.1233,0.1384,0.1492,0.1648,0.1798,0.1976,0.2042,0.2074,0.1739,0.0689,-0.0023,-0.018,-0.0367,-0.0396,-0.0489,-0.0313,-0.0293,-0.0274,-0.0313,-0.0473,-0.0474,-0.0752,-0.0755,-0.0757]}],[{"header":{"parameterUnit":"m.s-1","parameterCategory":2,"la1":30.2991,"la2":30.254,"lo1":-89.0895,"lo2":-89.0444,"dy":0.0017,"dx":0.0017,"nx":28,"ny":28,"refTime":"2024-06-17T03:00:00:Z","depth":"2","parameterNumber":2,"parameterNumberName":"U-component_of_CURRENTS"},"data":[0,0,0,0,0,0,0,0,0,0,0,0,0,0,0,0,0,0,0,0,0,0,0,0,0,0,0,0,0,0,0,0,0,0,0,0,0,0,0,0,0,0,0,0,0,0,0,0,0,0,0,0,0,0,0,0,0,0,0.2069,0.207,0,0.2092,0.2092,0.2092,0.2112,0.2113,0.2114,0.2114,0.2121,0.212,0.212,0,0,0,0,0,0,0,0,0,0,0,0,0,0.2035,0.2035,0.2069,0.207,0.2071,0.2092,0.2092,0.2092,0.2112,0.2113,0.2114,0.2115,0.2121,0.212,0.212,0,0,0,0,0,0,0,0,0,0,0,0,0,0.2049,0.2036,0.2069,0.2087,0.2089,0.2092,0.2092,0.2092,0.2112,0.2113,0.2114,0.2115,0.2121,0.212,0.212,0.2096,0,0,0.2118,0.2117,0,0,0,0,0,0,0,0,0.2048,0.205,0.2083,0.2086,0.2088,0.2104,0.2082,0.2094,0.2112,0.2099,0.2114,0.2116,0.2116,0.2116,0.2112,0.2096,0.2096,0.2118,0.2117,0.2117,0.2117,0,0,0,0,0,0,0,0.2047,0.2049,0.2074,0.2084,0.2087,0.2091,0.2093,0.2084,0.2098,0.21,0.2103,0.2112,0.2116,0.2112,0.2112,0.2096,0.2118,0.2117,0.2117,0.2116,0.2155,0.2156,0,0,0,0,0,0,0.2053,0.2048,0.2073,0.2075,0.2075,0.2091,0.2094,0.2094,0.2098,0.2101,0.2111,0.2113,0.2113,0.2113,0.2112,0.2161,0.2117,0.2116,0.2116,0.2153,0.2155,0.2157,0,0,0,0,0,0,0.2052,0.2054,0.2072,0.2066,0.2069,0.2091,0.2091,0.2094,0.211,0.2108,0.211,0.2127,0.2114,0.2113,0.2128,0.2159,0.2116,0.2115,0.2152,0.2154,0.2156,0.221,0,0,0,0,0,0,0.205,0.2053,0.2064,0.2066,0.207,0.2084,0.2091,0.2094,0.2116,0.2119,0.2121,0.2122,0.2114,0.2129,0.2127,0.2157,0.2115,0.215,0.2153,0.2155,0.2206,0.2214,0.222,0,0,0,0,0,0.2049,0.2053,0.2064,0.2068,0.2081,0.2085,0.2086,0.2103,0.2116,0.2121,0.2132,0.2123,0.2145,0.2129,0.2127,0.2157,0.2149,0.2152,0.2155,0.2203,0.2212,0.222,0,0,0,0,0,0,0.2041,0.2057,0.2068,0.2077,0.2088,0.209,0.2098,0.2112,0.2123,0.2134,0.213,0.2131,0.2157,0.2148,0.2131,0.2178,0.2149,0.2152,0.2187,0.2195,0.2202,0.223,0.2114,0,0,0,0,0,0.2045,0.2054,0.2068,0.2076,0.2082,0.2094,0.2103,0.2116,0.2125,0.2132,0.2132,0.2144,0.2164,0.2173,0.2175,0.2193,0.2216,0.2216,0.2222,0.2228,0.2251,0.2318,0.2334,0.2167,0.2167,0.2167,0,0,0.2042,0.2055,0.2059,0.2076,0.2082,0.2097,0.21,0.2117,0.2141,0.213,0.2152,0.216,0.2173,0.2199,0.2212,0.2199,0.2285,0.2232,0.2237,0.2257,0.2323,0.234,0.2354,0.2169,0.2169,0.2168,0,0,0.2038,0.2051,0.206,0.2075,0.2101,0.2107,0.2118,0.2129,0.2147,0.2169,0.2181,0.2218,0.2216,0.225,0.2266,0.2312,0.2316,0.2306,0.2366,0.2431,0.2446,0.2459,0.2501,0.2517,0.2314,0.2314,0.2314,0,0.2041,0.2051,0.2062,0.2081,0.21,0.2116,0.2135,0.2153,0.217,0.2197,0.2185,0.2249,0.2252,0.2327,0.2346,0.2331,0.2357,0.2332,0.2442,0.2455,0.2468,0.2507,0.2525,0.2317,0.2317,0.2316,0.2316,0,0.2041,0.2063,0.2066,0.2097,0.2119,0.2133,0.2167,0.2189,0.221,0.2238,0.2305,0.2323,0.2372,0.2378,0.2376,0.2473,0.2458,0.2439,0.2422,0.2488,0.2525,0.2542,0.2321,0.232,0.2319,0.2319,0,0,0.2015,0.2058,0.2063,0.2091,0.2133,0.2149,0.2194,0.2243,0.2297,0.2323,0.2398,0.2445,0.2472,0.2495,0.2508,0.2566,0.2668,0.2544,0.2546,0.2588,0.2803,0.2689,0.2696,0.2667,0.2671,0.2674,0.2789,0,0.2014,0.2048,0.2074,0.2118,0.214,0.2183,0.2227,0.2286,0.2333,0.2403,0.2465,0.2532,0.2513,0.2555,0.2613,0.2657,0.2718,0.2638,0.2731,0.2734,0.2627,0.2714,0.2479,0.2553,0.2806,0.2809,0.2811,0,0.2011,0.2036,0.2074,0.2146,0.2161,0.2196,0.2287,0.2334,0.2441,0.2486,0.2577,0.2618,0.2727,0.2692,0.2825,0.2774,0.2802,0.2827,0.2831,0.2723,0.2653,0.253,0.2575,0.284,0.2837,0.2835,0.2833,0,0.1989,0.2045,0.2075,0.2098,0.2173,0.2212,0.2261,0.2363,0.2429,0.2557,0.263,0.2737,0.2818,0.2878,0.293,0.2889,0.3062,0.3008,0.2935,0.2927,0.2745,0.2713,0.3112,0.3112,0.3112,0.3111,0.3111,0,0.1981,0.2007,0.2072,0.2089,0.2153,0.2215,0.2307,0.2373,0.2496,0.2609,0.2682,0.2794,0.2873,0.2969,0.2985,0.3022,0.3113,0.2974,0.2963,0.2753,0.2722,0.298,0.2963,0.3116,0.3115,0.3114,0.3113,0,0.1958,0.1988,0.2031,0.2109,0.2144,0.2195,0.2326,0.2405,0.2516,0.2672,0.2723,0.2869,0.2992,0.305,0.316,0.3095,0.3134,0.3122,0.2857,0.2811,0.2937,0.2921,0.3048,0.3046,0.3043,0.3041,0.304,0,0.1945,0.1968,0.2046,0.2096,0.2135,0.2225,0.2302,0.2406,0.2507,0.2725,0.2809,0.2962,0.3024,0.3114,0.3072,0.3067,0.315,0.2828,0.2699,0.2962,0.2938,0.2926,0.2914,0.2484,0.2478,0.2473,0.2469,0,0.1936,0.1965,0.2004,0.2092,0.2167,0.2268,0.2389,0.2458,0.2617,0.2685,0.281,0.2853,0.2954,0.2823,0.2824,0.279,0.2796,0.2723,0.3114,0.2518,0.2434,0.2408,0.2415,0.2425,0.243,0.2433,0.2435,0.2437,0.1938,0.1956,0.2011,0.2102,0.2188,0.2309,0.235,0.2444,0.2508,0.2577,0.2701,0.2641,0.2638,0.2486,0.242,0.2384,0.2563,0.2423,0.2437,0.2457,0.2352,0.2266,0.2207,0.221,0.2213,0.2215,0.2217,0,0.1938,0.1965,0.204,0.2114,0.2187,0.228,0.2402,0.2382,0.2364,0.2392,0.2362,0.2121,0.2027,0.2079,0.1937,0.1892,0.1861,0.1825,0.1777,0.1823,0.1863,0.1727,0.1417,0.1414,0.1412,0.141,0,0,0.1939,0.1962,0.1992,0.208,0.2175,0.2241,0.2298,0.2189,0.2144,0.1972,0.1864,0.1919,0.1989,0.1667,0.1619,0.1509,0.165,0.1443,0.2089,0.208,0.2117,0.2218,0.206,0,0,0,0,0]},{"header":{"parameterUnit":"m.s-1","parameterCategory":2,"la1":30.2991,"la2":30.254,"lo1":-89.0895,"lo2":-89.0444,"dy":0.0017,"dx":0.0017,"nx":28,"ny":28,"refTime":"2024-06-17T03:00:00:Z","depth":"2","parameterNumber":3,"parameterNumberName":"V-component_of_CURRENTS"},"data":[0,0,0,0,0,0,0,0,0,0,0,0,0,0,0,0,0,0,0,0,0,0,0,0,0,0,0,0,0,0,0,0,0,0,0,0,0,0,0,0,0,0,0,0,0,0,0,0,0,0,0,0,0,0,0,0,0,0,0.0102,0.0101,0,0.0053,0.0052,0.0052,0.0021,0.0021,0.0021,0.0021,-0.0072,-0.0074,-0.0076,0,0,0,0,0,0,0,0,0,0,0,0,0,0.0129,0.0129,0.0102,0.0101,0.0101,0.0053,0.0052,0.0052,0.0021,0.0021,0.0021,0.0021,-0.0071,-0.0074,-0.0076,0,0,0,0,0,0,0,0,0,0,0,0,0,0.0103,0.0129,0.0102,0.0079,0.0077,0.0053,0.0052,0.0052,0.0021,0.0021,0.0021,0.002,-0.007,-0.0073,-0.0077,-0.0091,0,0,-0.0087,-0.0088,0,0,0,0,0,0,0,0,0.0105,0.0102,0.0083,0.0081,0.0078,0.0042,0.0028,0.0002,0.0022,0.0043,0.0021,0.002,-0.0038,-0.0044,-0.0051,-0.0095,-0.0099,-0.0087,-0.0089,-0.0091,-0.0092,0,0,0,0,0,0,0,0.0107,0.0104,0.0083,0.0083,0.0079,0.0057,0.0054,0.0023,0.0005,0.0041,0.0039,0.0032,-0.004,-0.0047,-0.0053,-0.01,-0.0087,-0.009,-0.0092,-0.0094,-0.0166,-0.0166,0,0,0,0,0,0,0.0114,0.0106,0.0085,0.0082,0.009,0.0057,0.0053,0.0055,0.0006,-0.0001,0.0033,0.0031,-0.0041,-0.0049,-0.0057,-0.0067,-0.0091,-0.0094,-0.0096,-0.0166,-0.0166,-0.0165,0,0,0,0,0,0,0.0115,0.0113,0.0087,0.0092,0.0087,0.0058,0.0059,0.0054,0.0042,-0.0,-0.0008,0.0026,-0.0042,-0.0052,-0.0082,-0.0072,-0.0095,-0.0098,-0.0166,-0.0166,-0.0166,-0.0095,0,0,0,0,0,0,0.0116,0.0114,0.0115,0.0092,0.0087,0.0075,0.0059,0.0053,0.0039,0.0036,-0.0008,-0.0017,-0.0043,-0.0077,-0.0086,-0.0077,-0.0101,-0.0166,-0.0166,-0.0166,-0.0097,-0.0092,-0.0088,0,0,0,0,0,0.0117,0.0121,0.0115,0.0112,0.009,0.0076,0.0071,0.0049,0.0039,0.0037,0.0008,-0.0016,-0.0082,-0.008,-0.009,-0.0082,-0.0166,-0.0166,-0.0166,-0.0099,-0.0093,-0.0088,0,0,0,0,0,0,0.0132,0.0117,0.0111,0.0109,0.0095,0.007,0.0065,0.005,0.0026,0.0021,-0.0017,-0.0027,-0.0049,-0.0079,-0.0075,-0.0103,-0.0127,-0.0129,-0.0073,-0.0068,-0.0064,-0.0035,-0.0104,0,0,0,0,0,0.0137,0.0137,0.0118,0.0118,0.0112,0.0089,0.0079,0.0065,0.0041,0.0031,0.0002,-0.003,-0.0056,-0.0072,-0.0101,-0.0118,-0.0137,-0.012,-0.0116,-0.0111,-0.0096,-0.0111,-0.0106,-0.0165,-0.0165,-0.0165,0,0,0.0142,0.0134,0.0134,0.0121,0.0109,0.0107,0.0083,0.0071,0.007,0.0023,0.0013,-0.0017,-0.0058,-0.0072,-0.0085,-0.0096,-0.0107,-0.0111,-0.0107,-0.0094,-0.011,-0.0104,-0.0099,-0.0165,-0.0165,-0.0165,0,0,0.0154,0.0148,0.0152,0.0144,0.0127,0.0116,0.0114,0.0091,0.0083,0.0067,0.0038,0.002,-0.0027,-0.0041,-0.0058,-0.0047,-0.0082,-0.0065,-0.0017,-0.0031,-0.0026,-0.0022,-0.0042,-0.004,-0.0061,-0.0061,-0.0061,0,0.0161,0.0167,0.015,0.0152,0.0152,0.0124,0.0132,0.0119,0.009,0.0093,0.007,0.0033,-0.0006,-0.0007,-0.0005,-0.0033,-0.0052,-0.0032,-0.0023,-0.0019,-0.0015,-0.0037,-0.0036,-0.0058,-0.0058,-0.0058,-0.0059,0,0.0176,0.0181,0.0183,0.0183,0.018,0.0181,0.0167,0.0163,0.015,0.014,0.0136,0.0094,0.008,0.0058,0.0027,0.0035,0.001,-0.0014,-0.0031,-0.0005,-0.003,-0.003,-0.0053,-0.0054,-0.0055,-0.0056,0,0,0.0199,0.0196,0.0198,0.0211,0.02,0.0204,0.0209,0.0215,0.0236,0.0204,0.0234,0.0185,0.0175,0.0156,0.012,0.0103,0.01,0.0057,0.0055,0.0049,0.0064,0.0014,0.0009,0.0076,0.0077,0.0077,0.0035,0,0.022,0.0238,0.023,0.0256,0.0269,0.0257,0.0273,0.0274,0.0272,0.0292,0.0261,0.0269,0.0208,0.0213,0.0186,0.0128,0.0105,0.0114,0.0029,0.0027,-0.0011,0.0009,0.0045,0.0007,0.0035,0.0035,0.0035,0,0.0243,0.0254,0.0282,0.031,0.0316,0.0332,0.037,0.0379,0.0393,0.0397,0.0401,0.0377,0.0362,0.0305,0.0228,0.0235,0.0158,0.0102,0.0099,0.0032,-0.0022,-0.0015,0.0006,0.0035,0.0035,0.0035,0.0035,0,0.0278,0.0297,0.0327,0.0332,0.0353,0.0378,0.0395,0.0416,0.0449,0.0477,0.0516,0.0477,0.0482,0.0388,0.0271,0.0251,0.0178,0.0136,0.0017,0.0012,0.0017,0.0012,0.0078,0.0078,0.0078,0.0078,0.0079,0,0.031,0.0334,0.035,0.0367,0.042,0.0424,0.0489,0.0503,0.055,0.062,0.0582,0.0633,0.0502,0.0444,0.0315,0.0175,0.0211,0.0036,0.0003,0.004,0.0037,0.0039,0.0036,0.0077,0.0077,0.0077,0.0078,0,0.0343,0.0348,0.0385,0.0419,0.0437,0.0477,0.0548,0.0594,0.0642,0.0738,0.076,0.0751,0.0686,0.0539,0.039,0.0242,0.0106,0.004,0.0087,0.006,-0.0065,-0.0065,-0.0091,-0.0093,-0.0095,-0.0097,-0.0098,0,0.0358,0.0381,0.0426,0.0451,0.047,0.0532,0.0575,0.0631,0.0705,0.0822,0.0882,0.0855,0.0844,0.0602,0.0367,0.0137,0.0102,-0.0018,-0.0059,-0.0051,-0.008,-0.0077,-0.0075,-0.0025,-0.0025,-0.0026,-0.0026,0,0.039,0.0406,0.0437,0.0485,0.0534,0.0604,0.0691,0.077,0.0869,0.097,0.1078,0.1076,0.0873,0.0659,0.0334,0.017,0.0019,-0.0038,-0.0016,0.0002,0.0006,-0.0021,-0.0019,-0.003,-0.0029,-0.0029,-0.0029,-0.0029,0.0412,0.0439,0.0473,0.0524,0.0575,0.0677,0.0784,0.0899,0.1043,0.1213,0.1187,0.1191,0.0935,0.0526,0.0276,0.0005,-0.0003,-0.0125,-0.0121,-0.0116,-0.0111,-0.0112,-0.0168,-0.0169,-0.0169,-0.017,-0.017,0,0.0436,0.0464,0.0506,0.0573,0.0638,0.0682,0.0857,0.0991,0.1198,0.1268,0.1343,0.1087,0.0851,0.0577,0.0189,-0.0078,-0.0083,-0.0169,-0.0099,-0.0095,-0.0091,-0.0082,-0.0133,-0.0134,-0.0134,-0.0135,0,0,0.0445,0.0487,0.0509,0.061,0.0679,0.0846,0.0981,0.117,0.128,0.1357,0.1337,0.1246,0.0913,0.0628,0.0308,0.0106,0.0055,0.0047,0.0041,0.0166,0.0173,-0.0047,-0.0026,0,0,0,0,0]}],[{"header":{"parameterUnit":"m.s-1","parameterCategory":2,"la1":30.2991,"la2":30.254,"lo1":-89.0895,"lo2":-89.0444,"dy":0.0017,"dx":0.0017,"nx":28,"ny":28,"refTime":"2024-06-17T03:00:00:Z","depth":"4","parameterNumber":2,"parameterNumberName":"U-component_of_CURRENTS"},"data":[0,0,0,0,0,0,0,0,0,0,0,0,0,0,0,0,0,0,0,0,0,0,0,0,0,0,0,0,0,0,0,0,0,0,0,0,0,0,0,0,0,0,0,0,0,0,0,0,0,0,0,0,0,0,0,0,0,0,0.1018,0.1018,0,0.1041,0.1042,0.1042,0.107,0.107,0.107,0.1071,0.1135,0.1137,0.1138,0,0,0,0,0,0,0,0,0,0,0,0,0,0.1012,0.1012,0.1018,0.1018,0.1018,0.1041,0.1042,0.1042,0.1069,0.107,0.1071,0.1071,0.1135,0.1137,0.1138,0,0,0,0,0,0,0,0,0,0,0,0,0,0.1023,0.1012,0.1018,0.1035,0.1037,0.1041,0.1042,0.1042,0.1069,0.107,0.1071,0.1071,0.1135,0.1136,0.1138,0.1136,0,0,0.1144,0.1145,0,0,0,0,0,0,0,0,0.1022,0.1023,0.1032,0.1034,0.1036,0.1054,0.1063,0.1076,0.1069,0.1057,0.1071,0.1072,0.1112,0.1116,0.1117,0.1139,0.1142,0.1144,0.1145,0.1146,0.1147,0,0,0,0,0,0,0,0.1021,0.1022,0.1027,0.1033,0.1035,0.1048,0.105,0.1066,0.108,0.1058,0.106,0.1063,0.1113,0.1115,0.1119,0.1143,0.1144,0.1146,0.1147,0.1148,0.1274,0.1276,0,0,0,0,0,0,0.1018,0.1021,0.1026,0.1027,0.1031,0.1047,0.1049,0.1047,0.1079,0.1085,0.1063,0.1064,0.1111,0.1117,0.1121,0.1201,0.1146,0.1148,0.1149,0.1272,0.1275,0.1277,0,0,0,0,0,0,0.1017,0.1018,0.1025,0.1026,0.1028,0.1046,0.1043,0.1047,0.1081,0.1083,0.1089,0.1097,0.1112,0.1119,0.1153,0.1201,0.1149,0.1151,0.127,0.1273,0.1276,0.1309,0,0,0,0,0,0,0.1017,0.1017,0.1033,0.1025,0.1027,0.1041,0.1043,0.1047,0.108,0.1084,0.1114,0.1118,0.1113,0.1151,0.1155,0.1202,0.1152,0.1267,0.1271,0.1275,0.1305,0.1313,0.132,0,0,0,0,0,0.1017,0.102,0.1033,0.1035,0.1042,0.1042,0.1044,0.106,0.1082,0.1095,0.1115,0.1119,0.1182,0.1153,0.1158,0.1207,0.1265,0.127,0.1275,0.1302,0.1311,0.1319,0,0,0,0,0,0,0.1025,0.1024,0.1037,0.1042,0.1052,0.1047,0.1065,0.108,0.1107,0.1125,0.113,0.1135,0.1193,0.1195,0.1163,0.126,0.1232,0.1238,0.1251,0.126,0.1267,0.1269,0.1154,0,0,0,0,0,0.1035,0.1043,0.1042,0.1054,0.106,0.1074,0.1086,0.1098,0.1112,0.1126,0.1145,0.1178,0.1213,0.123,0.1257,0.1294,0.1304,0.1338,0.1345,0.1351,0.1359,0.1399,0.141,0.1294,0.1294,0.1293,0,0,0.1045,0.1045,0.1053,0.1058,0.1071,0.1083,0.1083,0.1108,0.114,0.1129,0.1185,0.1205,0.1231,0.1277,0.1305,0.1286,0.1392,0.1357,0.1362,0.1367,0.1405,0.1416,0.1426,0.1297,0.1296,0.1296,0,0,0.1056,0.1069,0.1079,0.1088,0.111,0.1113,0.1129,0.1145,0.1178,0.1222,0.1235,0.1261,0.1323,0.1327,0.1345,0.1407,0.1434,0.1454,0.1484,0.1523,0.1532,0.154,0.1572,0.1583,0.1451,0.1451,0.1451,0,0.1077,0.1081,0.1084,0.1096,0.1115,0.1132,0.1154,0.1182,0.1213,0.124,0.1252,0.1347,0.1338,0.1402,0.1417,0.142,0.1463,0.1442,0.153,0.1538,0.1546,0.1576,0.1588,0.1453,0.1453,0.1453,0.1453,0,0.1083,0.1105,0.1112,0.1134,0.1153,0.1175,0.1206,0.124,0.1285,0.1308,0.1399,0.1408,0.146,0.1472,0.1458,0.153,0.1551,0.1536,0.1499,0.1559,0.1588,0.1599,0.1456,0.1456,0.1455,0.1454,0,0,0.1085,0.1114,0.1121,0.1145,0.1181,0.1192,0.1249,0.1292,0.1344,0.14,0.1471,0.1513,0.1539,0.1561,0.1573,0.159,0.1647,0.1596,0.1597,0.1614,0.1763,0.1627,0.1625,0.1673,0.1676,0.1677,0.1762,0,0.1099,0.1127,0.1141,0.1186,0.1206,0.1242,0.1286,0.1333,0.1398,0.1463,0.151,0.1582,0.1577,0.1619,0.1644,0.1651,0.1682,0.1627,0.1715,0.1718,0.1576,0.1634,0.1684,0.177,0.1773,0.1774,0.1776,0,0.1097,0.112,0.1165,0.1217,0.1231,0.1265,0.1348,0.1394,0.1477,0.1531,0.1622,0.1673,0.1728,0.171,0.179,0.1777,0.1781,0.1777,0.1781,0.1647,0.1601,0.17,0.1796,0.1794,0.1793,0.1791,0.179,0,0.1083,0.1135,0.1177,0.1195,0.1252,0.1295,0.1335,0.1417,0.1465,0.159,0.165,0.1751,0.1811,0.1855,0.1859,0.185,0.193,0.1902,0.1793,0.1784,0.1865,0.1855,0.1957,0.1957,0.1957,0.1957,0.1957,0,0.1074,0.111,0.1181,0.1199,0.1251,0.1306,0.138,0.1434,0.1527,0.1577,0.17,0.1764,0.1856,0.1913,0.1907,0.1888,0.1979,0.181,0.1798,0.1879,0.187,0.1873,0.1862,0.196,0.1959,0.1959,0.1958,0,0.1039,0.1091,0.1132,0.121,0.1242,0.1281,0.137,0.1393,0.1532,0.1614,0.1657,0.1788,0.1862,0.1937,0.1982,0.1929,0.1918,0.1886,0.1982,0.1972,0.1739,0.173,0.1779,0.1775,0.1772,0.1769,0.1766,0,0.1022,0.1041,0.112,0.1131,0.1171,0.1242,0.125,0.1368,0.1398,0.16,0.1602,0.1751,0.1825,0.1816,0.1874,0.1893,0.1859,0.1857,0.1781,0.1739,0.1723,0.1719,0.1714,0.1761,0.176,0.1759,0.1758,0,0.0971,0.1006,0.1021,0.1025,0.1048,0.1097,0.1149,0.1177,0.1311,0.1452,0.1535,0.1605,0.1685,0.1722,0.1765,0.1758,0.1857,0.182,0.1827,0.1755,0.1717,0.1704,0.1703,0.1746,0.1748,0.1749,0.175,0,0.092,0.0904,0.0895,0.0894,0.0905,0.0929,0.1003,0.1043,0.1109,0.1346,0.1351,0.1525,0.165,0.165,0.1668,0.1677,0.1643,0.1582,0.16,0.1614,0.1516,0.1441,0.1384,0,0,0,0,0,0.0861,0.0802,0.0758,0.0739,0.0733,0.0775,0.0884,0.0966,0.1129,0.1139,0.1262,0.1331,0.1416,0.1474,0.145,0.1567,0.1631,0.1528,0.1564,0.1679,0.1693,0.1591,0,0,0,0,0,0,0.0807,0.0758,0.0703,0.0583,0.0562,0.0569,0.0666,0.0804,0.0835,0.1025,0.1068,0.1217,0.1298,0.1407,0.1409,0.1429,0.1419,0.1622,0.1618,0.1671,0.1684,0.1695,0.1595,0,0,0,0,0]},{"header":{"parameterUnit":"m.s-1","parameterCategory":2,"la1":30.2991,"la2":30.254,"lo1":-89.0895,"lo2":-89.0444,"dy":0.0017,"dx":0.0017,"nx":28,"ny":28,"refTime":"2024-06-17T03:00:00:Z","depth":"4","parameterNumber":3,"parameterNumberName":"V-component_of_CURRENTS"},"data":[0,0,0,0,0,0,0,0,0,0,0,0,0,0,0,0,0,0,0,0,0,0,0,0,0,0,0,0,0,0,0,0,0,0,0,0,0,0,0,0,0,0,0,0,0,0,0,0,0,0,0,0,0,0,0,0,0,0,0.0204,0.0204,0,0.0187,0.0187,0.0186,0.0186,0.0186,0.0186,0.0186,0.0129,0.0128,0.0126,0,0,0,0,0,0,0,0,0,0,0,0,0,0.0197,0.0197,0.0204,0.0204,0.0204,0.0187,0.0187,0.0186,0.0186,0.0186,0.0186,0.0186,0.013,0.0128,0.0126,0,0,0,0,0,0,0,0,0,0,0,0,0,0.0192,0.0197,0.0204,0.0201,0.0201,0.0187,0.0187,0.0186,0.0185,0.0186,0.0186,0.0186,0.0131,0.0128,0.0126,0.0104,0,0,0.0118,0.0117,0,0,0,0,0,0,0,0,0.0192,0.0192,0.0202,0.0201,0.0201,0.0189,0.0163,0.0157,0.0185,0.0191,0.0186,0.0186,0.0145,0.0142,0.0138,0.0101,0.0099,0.0118,0.0116,0.0115,0.0114,0,0,0,0,0,0,0,0.0193,0.0193,0.0197,0.0201,0.0201,0.0187,0.0187,0.0162,0.0166,0.0191,0.0191,0.0189,0.0145,0.0141,0.0137,0.0098,0.0118,0.0116,0.0114,0.0113,0.0033,0.0033,0,0,0,0,0,0,0.0196,0.0193,0.0198,0.0197,0.0197,0.0187,0.0187,0.0192,0.0167,0.0164,0.0188,0.0189,0.0145,0.014,0.0135,0.0112,0.0115,0.0113,0.0111,0.0034,0.0033,0.0032,0,0,0,0,0,0,0.0197,0.0197,0.0198,0.0194,0.0193,0.0187,0.0193,0.0192,0.019,0.0166,0.0162,0.0188,0.0145,0.0138,0.0115,0.011,0.0112,0.0109,0.0035,0.0034,0.0033,0.0063,0,0,0,0,0,0,0.0197,0.0198,0.0202,0.0195,0.0194,0.0192,0.0192,0.0191,0.0188,0.0188,0.0164,0.0159,0.0145,0.0118,0.0112,0.0106,0.0107,0.0035,0.0034,0.0033,0.0063,0.0064,0.0064,0,0,0,0,0,0.0196,0.02,0.0203,0.0203,0.0201,0.0192,0.019,0.0187,0.0188,0.0186,0.0171,0.016,0.0107,0.0116,0.0109,0.0102,0.0036,0.0034,0.0033,0.0063,0.0064,0.0064,0,0,0,0,0,0,0.0197,0.02,0.0203,0.0208,0.0202,0.0192,0.019,0.0187,0.0174,0.0175,0.0154,0.0147,0.0123,0.0105,0.0116,0.0074,0.0068,0.0065,0.0093,0.0094,0.0094,0.0109,0.0105,0,0,0,0,0,0.0201,0.0208,0.0203,0.0207,0.0206,0.0199,0.0195,0.0192,0.018,0.0175,0.0158,0.0135,0.0111,0.0098,0.0074,0.0051,0.0033,0.004,0.0041,0.0041,0.0047,0.0013,0.0012,0.0028,0.0028,0.0028,0,0,0.0202,0.0205,0.0209,0.0208,0.0205,0.0202,0.0197,0.0193,0.0191,0.0169,0.0158,0.0135,0.0104,0.0082,0.0069,0.0068,0.0026,0.004,0.0041,0.0046,0.0012,0.001,0.0009,0.0027,0.0027,0.0027,0,0,0.0205,0.0212,0.0217,0.0214,0.021,0.0205,0.0205,0.0195,0.0192,0.0177,0.0159,0.0138,0.0101,0.0082,0.0067,0.0052,0.0029,0.0039,0.0055,0.0022,0.0021,0.002,-0.0006,-0.001,0.004,0.0041,0.0041,0,0.0207,0.0215,0.0214,0.0216,0.0217,0.0208,0.021,0.0202,0.0185,0.0181,0.0176,0.0128,0.0103,0.0077,0.0073,0.0055,0.0034,0.0059,0.0025,0.0023,0.0021,-0.0005,-0.001,0.0042,0.0042,0.0042,0.0041,0,0.0211,0.0219,0.022,0.0224,0.0223,0.0222,0.0214,0.0208,0.0202,0.0194,0.017,0.014,0.0115,0.0098,0.0082,0.0055,0.0043,0.003,0.0029,0.0022,-0.0006,-0.0011,0.0044,0.0043,0.0043,0.0043,0,0,0.0216,0.0223,0.0225,0.0232,0.0229,0.023,0.0224,0.0217,0.0219,0.0197,0.0194,0.0152,0.0142,0.0123,0.0098,0.007,0.0037,0.0048,0.0045,0.0032,-0.0033,-0.0037,-0.0043,0.0018,0.0017,0.0016,-0.0047,0,0.0221,0.023,0.0232,0.0242,0.0247,0.0242,0.0241,0.0234,0.0225,0.0218,0.0187,0.0174,0.0149,0.0142,0.0109,0.0057,0.0025,0.0056,-0.0033,-0.0035,-0.003,-0.0049,0.0014,-0.0051,-0.0052,-0.0053,-0.0054,0,0.0226,0.0234,0.0245,0.0259,0.0262,0.0268,0.0273,0.0271,0.0255,0.025,0.0233,0.021,0.0173,0.0154,0.0067,0.0087,0.0031,-0.0012,-0.0016,-0.0032,-0.0049,-0.0045,-0.0063,-0.0063,-0.0062,-0.0061,-0.0061,0,0.0232,0.0245,0.0258,0.0261,0.027,0.028,0.0288,0.0282,0.0292,0.0277,0.0287,0.0232,0.022,0.014,0.0058,0.0059,-0.0042,-0.0054,-0.0112,-0.0113,-0.0101,-0.01,-0.0122,-0.0122,-0.0122,-0.0122,-0.0121,0,0.0237,0.0248,0.0266,0.0273,0.0296,0.0299,0.0326,0.0321,0.033,0.0354,0.0313,0.0315,0.0215,0.0151,0.0064,-0.0036,-0.004,-0.0111,-0.0131,-0.0088,-0.0084,-0.0105,-0.0103,-0.0124,-0.0123,-0.0123,-0.0123,0,0.0235,0.0246,0.0264,0.0286,0.03,0.0317,0.0363,0.0385,0.0389,0.042,0.0422,0.0372,0.0291,0.0184,0.0053,-0.0017,-0.0122,-0.016,-0.0101,-0.0117,-0.0172,-0.0167,-0.0229,-0.0229,-0.023,-0.023,-0.0231,0,0.023,0.0239,0.0276,0.0303,0.0318,0.0355,0.039,0.041,0.0444,0.0459,0.0478,0.0411,0.0368,0.0187,0.0057,-0.0114,-0.014,-0.0195,-0.019,-0.017,-0.0184,-0.0178,-0.0173,-0.0232,-0.0232,-0.0232,-0.0232,0,0.022,0.0238,0.026,0.0321,0.0367,0.0421,0.0476,0.05,0.0536,0.0537,0.0533,0.0445,0.035,0.0196,0.0061,-0.0064,-0.016,-0.0202,-0.0201,-0.0197,-0.0175,-0.0187,-0.0181,-0.0234,-0.0234,-0.0234,-0.0234,0,0.0219,0.0239,0.0286,0.0342,0.0416,0.0494,0.0504,0.0553,0.0581,0.0595,0.0584,0.0483,0.0414,0.0221,0.0095,-0.0027,-0.006,-0.0099,-0.0105,-0.0104,-0.0053,-0.0007,-0.0033,0,0,0,0,0,0.0218,0.0259,0.031,0.0389,0.047,0.0518,0.0579,0.0586,0.0611,0.062,0.0609,0.0522,0.0343,0.0251,0.013,0.007,-0.0091,-0.0078,-0.0142,-0.0246,-0.0244,-0.0206,0,0,0,0,0,0,0.0224,0.0273,0.0313,0.0439,0.0502,0.0597,0.064,0.0642,0.0642,0.0637,0.0538,0.0494,0.0307,0.0423,0.0132,0.0092,0.0034,-0.0166,-0.0169,-0.0247,-0.0245,-0.0243,-0.0204,0,0,0,0,0]}]]